Waarnemingen

Advertentie
Mijn weer
Boulmer, Groot Brittannië (3240): temperatuur & dauwpunt: 08.08.2018 14:00:00 - 14.08.2018 14:00:00 (BST)Boulmer, Groot Brittannië (3240): windsnelheid & windstoten: 08.08.2018 14:00:00 - 14.08.2018 14:00:00 (BST)Boulmer, Groot Brittannië (3240): windrichting: 08.08.2018 14:00:00 - 14.08.2018 14:00:00 (BST)Boulmer, Groot Brittannië (3240): luchtdruk: 08.08.2018 14:00:00 - 14.08.2018 14:00:00 (BST)Boulmer, Groot Brittannië (3240): zicht: 08.08.2018 14:00:00 - 14.08.2018 14:00:00 (BST)Boulmer, Groot Brittannië (3240): Zonneschijnduur: 08.08.2018 14:00:00 - 14.08.2018 14:00:00 (BST)Boulmer, Groot Brittannië (3240): neerslag: 08.08.2018 14:00:00 - 14.08.2018 14:00:00 (BST)
Datum & Tijd tt [°C] td [°C] ff [km/u] ff [kn] fx [km/u] fx [kn] dd ppp [hPa] vv [km] sd [min] rr [mm]
14.08.2018 14:00:00 18,1 15,4 13 7 - - ZW 1011,5 10 0 0,0
14.08.2018 13:00:00 18,7 13,6 21 11 - - WZW 1011,7 10 0 0,0
14.08.2018 12:00:00 19,6 13,7 21 11 - - WZW 1011,4 10 6 0,0
14.08.2018 11:00:00 18,6 13,4 21 11 - - ZW 1011,3 10 6 0,0
14.08.2018 10:00:00 17,5 13,9 11 6 - - ZZW 1011,1 10 0 0,0
14.08.2018 09:00:00 16,4 13,2 13 7 - - ZW 1011,4 10 6 0,0
14.08.2018 08:00:00 15,4 13,6 8 4 - - ZZW 1011,2 10 0 0,0
14.08.2018 07:00:00 14,6 13,7 11 6 - - WZW 1011,0 10 0 0,0
14.08.2018 06:00:00 15,2 14,9 5 3 - - ZW 1011,0 10 0 0,2
14.08.2018 05:00:00 15,3 14,8 2 1 - - NW 1010,8 7 0 0,0
14.08.2018 04:00:00 15,5 15,0 4 2 - - W 1010,7 10 0 0,0
14.08.2018 03:00:00 15,4 15,0 5 3 - - WZW 1010,7 10 0 0,0
14.08.2018 02:00:00 15,6 15,1 4 2 - - W 1010,6 10 0 0,0
14.08.2018 01:00:00 15,7 15,0 5 3 - - ZW 1010,6 10 - 0,0
14.08.2018 00:00:00 15,6 15,1 4 2 - - WZW 1010,1 10 0 0,0
13.08.2018 23:00:00 15,5 14,8 4 2 - - ZW 1009,7 10 0 0,0
13.08.2018 22:00:00 15,7 14,9 4 2 - - NNW 1009,6 10 0 0,0
13.08.2018 21:00:00 16,0 14,8 5 3 - - N 1009,4 10 0 0,0
13.08.2018 20:00:00 16,3 14,9 5 3 - - N 1009,0 10 0 0,0
13.08.2018 19:00:00 16,6 15,2 9 5 - - NNO 1008,5 10 24 0,0
13.08.2018 18:00:00 17,1 15,4 11 6 - - NNO 1008,3 10 0 0,0
13.08.2018 17:00:00 17,5 15,8 13 7 - - NNO 1008,1 10 30 0,0
13.08.2018 16:00:00 17,7 16,2 15 8 - - NNO 1007,8 10 6 0,0
13.08.2018 15:00:00 17,4 16,1 11 6 - - NNO 1007,6 10 0 0,0
13.08.2018 14:00:00 16,6 16,0 13 7 - - NNO 1007,4 17 0 0,0
13.08.2018 13:00:00 16,7 16,5 11 6 - - NNO 1007,1 8 0 0,0
13.08.2018 12:00:00 16,3 16,1 11 6 - - NO 1006,8 10 0 0,0
13.08.2018 11:00:00 16,3 16,3 13 7 - - NO 1006,4 5 0 0,2
13.08.2018 10:00:00 16,1 16,1 8 4 - - NO 1006,2 1,8 0 0,0
13.08.2018 09:00:00 16,2 16,1 9 5 - - N 1006,0 1,2 0 0,0
13.08.2018 08:00:00 16,2 16,2 5 3 - - NNW 1005,8 6 0 0,4
13.08.2018 07:00:00 15,8 15,8 5 3 - - NNW 1005,4 2,5 0 0,0
13.08.2018 06:00:00 15,7 15,7 5 3 - - NNW 1005,2 6 0 0,0
13.08.2018 05:00:00 15,6 15,6 5 3 - - NNW 1005,2 8 0 0,2
13.08.2018 04:00:00 15,6 15,6 5 3 - - N 1005,3 10 0 0,0
13.08.2018 03:00:00 15,6 15,6 5 3 - - NNW 1005,6 2,8 0 0,0
13.08.2018 02:00:00 15,5 15,5 5 3 - - N 1005,8 1,6 0 0,0
13.08.2018 01:00:00 15,5 15,5 5 3 - - N 1006,0 1,6 - 0,0
13.08.2018 00:00:00 15,4 15,3 5 3 - - NNW 1006,1 7 0 0,2
12.08.2018 23:00:00 15,4 15,3 5 3 - - N 1006,2 8 0 0,2
12.08.2018 22:00:00 15,4 15,3 4 2 - - WNW 1006,5 4,2 0 0,0
12.08.2018 21:00:00 15,3 15,2 2 1 - - N 1006,6 0,1 0 0,0
12.08.2018 20:00:00 15,3 15,0 4 2 - - O 1006,6 0,4 0 0,0
12.08.2018 19:00:00 16,2 15,6 8 4 - - NO 1006,3 10 0 0,0
12.08.2018 18:00:00 16,4 15,8 8 4 - - NNO 1006,5 10 6 0,0
12.08.2018 17:00:00 16,6 15,9 11 6 - - NNO 1006,5 10 30 0,0
12.08.2018 16:00:00 16,4 16,1 11 6 - - NNO 1007,0 10 0 0,0
12.08.2018 15:00:00 15,9 15,6 8 4 - - NNO 1007,1 6 0 0,0
12.08.2018 14:00:00 17,0 16,9 8 4 - - ONO 1007,3 8 0 0,0
12.08.2018 13:00:00 15,9 15,9 4 2 - - ZO 1007,3 7 0 0,2
12.08.2018 12:00:00 15,7 15,6 4 2 - - OZO 1007,4 7 0 0,6
12.08.2018 11:00:00 15,4 15,4 4 2 - - ZZO 1007,4 7 0 2,0
12.08.2018 10:00:00 15,2 15,2 8 4 - - ZO 1007,4 1,5 0 1,2
12.08.2018 09:00:00 14,8 14,8 8 4 - - ZZO 1007,4 2,1 0 0,8
12.08.2018 08:00:00 14,8 14,8 9 5 - - ZO 1007,6 1,1 0 0,6
12.08.2018 07:00:00 14,5 14,4 8 4 - - ZO 1007,9 0,6 0 0,6
12.08.2018 06:00:00 14,3 14,3 8 4 - - OZO 1008,2 0,8 0 0,0
12.08.2018 05:00:00 14,1 14,0 9 5 - - O 1008,7 1,5 0 1,4
12.08.2018 04:00:00 13,7 13,6 5 3 - - OZO 1009,6 1,7 0 2,0
12.08.2018 03:00:00 13,6 13,4 9 5 - - OZO 1010,6 3,1 0 1,8
12.08.2018 02:00:00 13,5 13,2 8 4 - - ZZO 1011,4 4,9 0 0,2
12.08.2018 01:00:00 14,2 13,5 8 4 - - ZO 1012,2 10 - 0,6
12.08.2018 00:00:00 14,1 13,0 4 2 - - ONO 1013,1 10 0 1,0
11.08.2018 23:00:00 14,3 12,5 2 1 - - NNO 1013,9 10 0 0,0
11.08.2018 22:00:00 14,6 12,2 8 4 - - OZO 1014,6 10 0 0,0
11.08.2018 21:00:00 14,4 11,8 11 6 - - ZO 1015,4 10 0 0,0
11.08.2018 20:00:00 14,6 11,7 13 7 - - ZZO 1015,9 10 0 0,0
11.08.2018 19:00:00 14,9 11,1 11 6 - - ZZO 1016,3 10 0 0,0
11.08.2018 18:00:00 15,4 11,1 15 8 - - ZZO 1016,7 10 6 0,0
11.08.2018 17:00:00 15,8 10,9 16 9 - - ZO 1017,1 10 18 0,0
11.08.2018 16:00:00 19,6 7,1 11 6 - - ZW 1017,4 10 30 0,0
11.08.2018 15:00:00 16,8 10,7 15 8 - - O 1018,1 10 18 0,0
11.08.2018 14:00:00 16,1 10,5 16 9 - - O 1018,6 10 30 0,0
11.08.2018 13:00:00 15,6 10,6 15 8 - - O 1018,9 10 48 0,0
11.08.2018 12:00:00 16,2 9,6 15 8 - - O 1018,8 10 60 0,0
11.08.2018 11:00:00 16,3 6,7 8 4 - - Z 1019,0 29 48 0,0
11.08.2018 10:00:00 15,8 7,8 13 7 - - W 1019,3 10 60 0,0
11.08.2018 09:00:00 13,8 8,8 16 9 - - W 1019,4 10 60 0,0
11.08.2018 08:00:00 12,1 8,6 16 9 - - WZW 1019,3 10 60 0,0
11.08.2018 07:00:00 10,0 8,1 15 8 - - WZW 1019,1 10 54 0,0
11.08.2018 06:00:00 8,5 7,4 16 9 - - WZW 1018,8 10 0 0,0
11.08.2018 05:00:00 8,6 7,4 13 7 - - WZW 1018,6 10 0 0,0
11.08.2018 04:00:00 9,9 7,7 4 2 - - W 1018,4 10 0 0,0
11.08.2018 03:00:00 10,8 8,3 16 9 - - W 1018,2 10 0 0,0
11.08.2018 02:00:00 11,3 8,5 18 10 - - W 1018,1 10 0 0,0
11.08.2018 01:00:00 10,9 8,1 13 7 - - W 1017,9 10 - 0,0
11.08.2018 00:00:00 11,4 8,4 16 9 - - W 1017,6 10 0 0,0
10.08.2018 23:00:00 11,9 8,9 16 9 - - W 1017,1 10 0 0,0
10.08.2018 22:00:00 12,3 9,6 15 8 - - W 1016,6 10 0 0,0
10.08.2018 21:00:00 12,5 9,4 13 7 - - W 1015,9 10 24 0,0
10.08.2018 20:00:00 13,3 9,3 18 10 - - W 1015,4 10 12 0,0
10.08.2018 19:00:00 14,0 9,9 21 11 - - W 1014,8 10 12 0,0
10.08.2018 18:00:00 14,1 10,0 15 8 - - W 1014,8 10 12 0,0
10.08.2018 17:00:00 12,5 10,1 15 8 - - WZW 1014,6 10 0 0,0
10.08.2018 16:00:00 12,9 10,5 9 5 - - ZZW 1014,6 10 0 0,2
10.08.2018 15:00:00 13,5 10,4 13 7 - - N 1014,0 10 6 0,2
10.08.2018 14:00:00 13,3 9,2 9 5 - - NNO 1013,6 10 18 0,0
10.08.2018 13:00:00 14,1 9,5 15 8 - - NNO 1013,0 10 6 0,0
10.08.2018 12:00:00 14,9 7,3 18 10 - - NW 1012,6 10 12 0,0
10.08.2018 11:00:00 15,1 9,1 16 9 - - WZW 1012,4 27 12 0,0
10.08.2018 10:00:00 15,7 10,6 18 10 - - ZW 1012,3 10 24 0,0
10.08.2018 09:00:00 13,9 9,5 15 8 - - ZW 1012,4 10 0 0,0
10.08.2018 08:00:00 13,5 9,6 11 6 - - Z 1012,1 10 36 0,0
10.08.2018 07:00:00 12,0 9,4 8 4 - - Z 1012,0 10 6 0,0
10.08.2018 06:00:00 11,6 8,4 8 4 - - ZW 1012,1 10 0 0,0
10.08.2018 05:00:00 11,5 8,4 8 4 - - ZW 1011,9 10 0 0,0
10.08.2018 04:00:00 10,3 7,9 11 6 - - ZW 1012,1 10 0 0,0
10.08.2018 03:00:00 10,3 7,1 15 8 - - WZW 1012,1 10 0 0,0
10.08.2018 02:00:00 11,9 7,6 15 8 - - W 1012,2 10 0 0,0
10.08.2018 01:00:00 12,3 8,0 15 8 - - WZW 1012,4 10 - 0,0
10.08.2018 00:00:00 12,7 8,3 18 10 - - W 1012,4 10 0 0,0
09.08.2018 23:00:00 12,5 8,0 15 8 - - WZW 1012,3 10 0 0,0
09.08.2018 22:00:00 12,7 7,2 15 8 - - ZW 1012,2 10 0 0,0
09.08.2018 21:00:00 15,3 6,4 11 6 - - WZW 1012,1 10 30 0,0
09.08.2018 20:00:00 17,9 5,8 15 8 - - WZW 1011,7 10 54 0,0
09.08.2018 19:00:00 18,2 4,8 16 9 - - WZW 1011,3 26 12 0,0
09.08.2018 18:00:00 16,5 11,1 15 8 - - ZZO 1011,6 10 36 0,0
09.08.2018 17:00:00 17,1 9,2 18 10 - - ZO 1012,1 10 36 0,0
09.08.2018 16:00:00 16,2 10,3 18 10 - - ZO 1012,4 10 18 0,0
09.08.2018 15:00:00 16,6 10,2 21 11 - - ZZO 1012,6 24 18 0,0
09.08.2018 14:00:00 19,1 6,2 21 11 - - ZW 1012,2 10 54 0,0
09.08.2018 13:00:00 19,0 5,8 18 10 - - ZW 1012,2 10 54 0,0
09.08.2018 12:00:00 18,7 5,6 21 11 - - ZW 1012,3 10 54 0,0
09.08.2018 11:00:00 17,9 6,8 22 12 - - ZW 1012,6 10 60 0,0
09.08.2018 10:00:00 17,4 9,0 22 12 - - ZW 1012,4 10 54 0,0
09.08.2018 09:00:00 15,3 9,1 18 10 - - ZW 1012,9 10 60 0,0
09.08.2018 08:00:00 12,2 10,0 5 3 - - Z 1012,8 10 48 0,0
09.08.2018 07:00:00 9,7 8,4 8 4 - - ZZW 1012,7 10 0 0,0
09.08.2018 06:00:00 9,5 8,3 9 5 - - ZZW 1012,0 10 0 0,0
09.08.2018 05:00:00 9,5 8,0 5 3 - - Z 1011,8 10 0 0,0
09.08.2018 04:00:00 9,1 8,1 8 4 - - Z 1011,9 10 0 0,0
09.08.2018 03:00:00 9,2 8,0 8 4 - - ZZO 1012,0 10 0 0,0
09.08.2018 02:00:00 10,7 9,3 9 5 - - ZZW 1011,7 10 0 0,0
09.08.2018 01:00:00 11,1 9,3 9 5 - - ZW 1011,8 10 - 0,0
09.08.2018 00:00:00 11,7 8,8 5 3 - - Z 1011,4 10 0 0,0
08.08.2018 23:00:00 13,3 9,0 16 9 - - WZW 1011,0 10 0 0,0
08.08.2018 22:00:00 13,2 8,2 13 7 - - WZW 1010,6 10 0 0,0
08.08.2018 21:00:00 15,0 9,2 18 10 - - WZW 1010,0 10 6 0,0
08.08.2018 20:00:00 16,5 8,3 21 11 - - WZW 1008,9 10 54 0,0
08.08.2018 19:00:00 18,5 8,3 24 13 46 25 WZW 1008,3 10 60 0,0
08.08.2018 18:00:00 19,3 7,1 31 17 46 25 ZW 1007,7 10 60 0,0
08.08.2018 17:00:00 19,9 8,9 29 16 50 27 WZW 1007,3 10 42 0,0
08.08.2018 16:00:00 19,7 10,2 34 18 50 27 ZW 1007,0 10 48 0,0
08.08.2018 15:00:00 20,0 11,0 29 16 - - ZW 1006,8 10 24 0,0
08.08.2018 14:00:00 18,8 10,6 28 15 - - ZW 1006,5 10 18 0,0

tt = temperatuur
td = dauwpunt
ff = windsnelheid
fx = windstoten
dd = windrichting
ppp = luchtdruk
vv = zicht
sd = Zonneschijnduur
rr = neerslag

Weerstations in de omgeving